STARLINK-5762, 55590

Orbit data source: Space-Track

STARLINK-5762, 55590 is a payload satellite owned by SpaceX/Seattle (US) in LEO that was launched on Sun, 12 Feb 2023 UTC via an FALCON 9 launch vehicle from the Air Force Eastern Test Range (AFETR). Payload-class satellites include a variety of spacecraft equipped with specific instruments for various scientific and technological missions. These include communications satellites like Starlink; space stations such as the ISS; scientific satellites like the Hubble; Earth observation satellites from companies like Planet Labs, Umbra, and HawkEye 360; GPS; miniature CubeSats for education and research; and military/defense satellites.

Loading next visibility...
Identifier
55590, 2023-020X
Orbit
LEO
Country
Flag of USUS
Related business
Manufacturer
SpaceX/Seattle
Mission
Operational Commercial Communications
Bus & Motor
STARLINK, Unknown motor
Mass
305 kg wet, ~290 kg dry
Launch date (UTC)
2023-02-12 (3 years ago)
Launch vehicle
FALCON 9
Launch site
Air Force Eastern Test Range (AFETR)
Object type
Payload
Rocket body
Debris
Shape & HBR
Box + 1 Pan, 10.1 m
Radar Cross Section
13.562 m², Large (>1 m²)

Expand to show TLE details & history
Last TLE update: 5 hours ago

TLE from 5 hours ago
0 STARLINK-5762
1 55590U 23020X   26062.16668981  .00027835  00000-0  18936-2 0  9996
2 55590  43.0006  39.7704 0001510 239.9299  52.0241 15.05828480  5762
Epoch: 2026-03-03T04:00Z
TLE epoch observation values (Epoch: 2026-03-03T04:00:01.999Z)
Latitude
-39.40126°
Longitude
117.64226°
Altitude
560.134 km
Speed
7.582 km/s
True Right ascension
22h 34m 24s
True Declination
-39° 13' 40"
Sunlit
Object was in daylight at epoch
Visualization orbit readout
Latitude
Unknown
Longitude
Unknown
Altitude
Unknown
Speed
Unknown
Apparent Right ascension
Unknown
Apparent Declination
Unknown
Sunlit
N/A
Visualization observer readout
Local Sidereal Time
13:11:47
Azimuth
Unknown
Elevation
Unknown
Doppler factor
Unknown
Orbital elements
Apogee altitude
551.937 km
Perigee altitude
549.844 km
Semi-major axis
6,929.027 km
Eccentricity
0.00015
Inclination
43.0006°
RAAN
39.7704°
Arg. of periapsis
239.9299°
True anomaly
52.03774°
Mean anomaly
52.0241°
Eccentric anomaly
52.03092°
Mean motion
3.763 °/min
Orbital period
95.67 mins
BSTAR
0.0018936
Loading maneuver chart data...
Computing Atmospheric mass density...
Loading historical data...
Loading historical data...
Loading historical data...
Loading historical data...
Loading historical data...
Loading historical data...
Loading historical data...

Documentation

Showing up to 5 results
|